Location: Cowley
(49.5667°N, 114.0667°W)
Time: 10:06:16
(UTC+00:00)

Envisat - Pass Details

Date: 10 December 2021
Orbit: 764 x 766 km, 98.2° (Epoch: 23 January)

Event Time Altitude Azimuth Distance (km) Brightness Sun altitude
Rises 11:48:31 0° 22° (NNE) 3,245 6.5 -33.4°
Reaches altitude 10° 11:51:08 10° 34° (NNE) 2,314 5.8 -33.0°
Maximum altitude 11:55:33 29° 94° (E) 1,380 4.8 -32.3°
Drops below altitude 10° 11:59:56 10° 154° (SSE) 2,297 5.7 -31.6°
Sets 12:02:30 0° 165° (SSE) 3,218 6.4 -31.2°
